Location: Newark
(34.1333°N, 7.9667°W)
Time: 00:55:50
(UTC+00:00)

JUGNU - Pass Details

Date: 18 June 2023
Orbit: 835 x 862 km, 20.0° (Epoch: 28 September)

Event Time Altitude Azimuth Distance (km) Brightness Sun altitude
Rises 21:17:16 0° 246° (WSW) 3,420 ? -16.0°
Reaches altitude 10° 21:20:38 10° 229° (SW) 2,480 ? -16.5°
Maximum altitude 21:24:35 18° 187° (S) 1,951 ? -17.1°
Enters shadow 21:25:19 18° 177° (S) 1,970 ? -17.2°
